Airfield :
LOGIN :

Register | Disclaimer

   EN    FR    IT 

 










Legend :    VFR   Marginal VFR   IFR   Intensive IFR   Very Intensive IFR
Visi :
Ceiling :
>= 8 km
>= 3000ft
5 to 8 km
1000 to 3000 ft
1500m to 5 km
500 to 1000 ft
800 to 1500m
200 to 500 ft
< 800m
< 200 ft
Symbols :   Thunderstorms  Fog  Heavy snow  Heavy precipitations  Wind > 20 kt
SIGMETs :     Misc.  Thunderstorms  Icing  Turbulence  Mountain Waves  Volcanic Ashes







- Airport Elevation : 102 ft
- IATA code : EXT
- Download approach charts


EGTE - Exeter

CURRENT METAR :
  • 170520Z 24005KT 210V270 9999 FEW017 17/16 Q1010

EXPIRED METARs :
  • 170450Z 23008KT 9999 FEW017 16/16 Q1011
  • 170420Z 23008KT 8000 FEW012 SCT020 16/16 Q1011

TAF TAF EGTE
Valid from the 17 at 06:00 until the 17 at 15:00 UTC


170455Z 1706/1715 21008KT 9999 SCT020
PROB30
TEMPO 1706/1708 8000 BKN010
No reported NOTAMs for that airfield.



MET'MAP, your aeronautical weather chart ! - Copyright ORBIFLY December 2007 - Disclaimer

ORBIFLY MET'MAP TEAM :

Programming & Development : Alexandra Zaïnal
Concept & Development : Baudouin d'Aumeries
Co-Development & Prog : Marc-Olivier Méhu
Technical & hardware support : Manuel Goepfert

Contact : metmap@orbifly.com




SOURCES & CREDITS :

   NOAA